Content
SEND FEEDBACK

Daily
Averages
Monthly
Summary
United States of America

RIMROCK, ARIZONA


Home > North America > United States > Arizona
Elevation: 3830 feet     Latitude: 34 40N     Longitude: 111 43W

WEATHER
 
SELECT A DAY
Number of Records: 139,991;   Date Range: 1/4/95 - 11/23/14
 
SHARE

PRINT THIS DATA

[ ← Previous Day ]
WEATHER ALMANAC - JULY 5, 2014
[ Next Day → ]
[ °C ]   °F
Weather ElementAverageHighLow
Temperature77.4 °F89.6 °F (1:35 pm)66.2 °F (4:15 am)
Dewpoint52.1 °F55.4 °F (9:35 pm)48.2 °F (1:15 pm)
Humidity43.7 %64 % (4:15 am)24 % (1:35 pm)
Barometer30.25 in30.31 in (7:35 am)30.16 in (3:55 pm)
Wind Speed6.6 mph16.1 mph (5:35 pm)
Wind Gust20.7 mph (3:35 pm)
Weather ElementAverage
Visibility10 mi
Wind DirectionSSE (142.8 °)

Weather ElementTotal
Precipitation---
Cooling Degree Days12.9 (Base 65)
Growing Degree Days27.9 (Base 50)
Averaged from 69 records on July 5, 2014
WEATHER CONDITIONS BREAKOUT
WIND DIRECTION BREAKOUT
WEATHER BY HOUR - JULY 5, 2014
[ °C ]   °F
Local TimeTemperatureDewpointHumidityBarometerVisibilityWind DirectionWind SpeedGust SpeedPrecipitationEventsConditions
12:35 AM69.8 °F53.6 °F56 %30.28 in10.0 miNE (50°)8.1 mphClear
12:55 AM68.0 °F53.6 °F60 %30.28 in10.0 miNNE (30°)11.5 mphClear
1:15 AM68.0 °F53.6 °F60 %30.27 in10.0 miNNE (20°)12.7 mphClear
1:35 AM68.0 °F53.6 °F60 %30.27 in10.0 miNE (50°)9.2 mphClear
1:55 AM68.0 °F53.6 °F60 %30.28 in10.0 miNE (40°)8.1 mphClear
2:15 AM68.0 °F53.6 °F60 %30.27 in10.0 miNE (40°)11.5 mphClear
2:35 AM68.0 °F53.6 °F60 %30.27 in10.0 miNE (40°)10.4 mphClear
2:55 AM68.0 °F53.6 °F60 %30.27 in10.0 miENE (60°)10.4 mphClear
3:35 AM68.0 °F53.6 °F60 %30.26 in10.0 miENE (70°)5.8 mphClear
3:55 AM68.0 °F53.6 °F60 %30.26 in10.0 miCalmClear
4:15 AM66.2 °F53.6 °F64 %30.26 in10.0 miNNE (30°)6.9 mphClear
4:35 AM66.2 °F53.6 °F64 %30.26 in10.0 miNE (40°)9.2 mphClear
4:55 AM66.2 °F53.6 °F64 %30.27 in10.0 miNE (50°)9.2 mphClear
5:15 AM66.2 °F53.6 °F64 %30.27 in10.0 miENE (60°)9.2 mphClear
5:35 AM66.2 °F51.8 °F60 %30.27 in10.0 miNE (50°)9.2 mphClear
5:55 AM68.0 °F51.8 °F56 %30.27 in10.0 miNE (40°)10.4 mphClear
6:15 AM68.0 °F53.6 °F60 %30.28 in10.0 miNE (40°)10.4 mph17.3 mphScattered Clouds
6:35 AM68.0 °F53.6 °F60 %30.29 in10.0 miENE (60°)8.1 mphMostly Cloudy
6:55 AM69.8 °F51.8 °F53 %30.30 in10.0 miENE (60°)3.5 mphOvercast
7:15 AM69.8 °F53.6 °F56 %30.30 in10.0 miENE (70°)8.1 mphOvercast
7:35 AM69.8 °F53.6 °F56 %30.31 in10.0 miENE (60°)5.8 mphOvercast
7:55 AM69.8 °F53.6 °F56 %30.31 in10.0 miEast (90°)3.5 mphMostly Cloudy
8:15 AM71.6 °F53.6 °F53 %30.31 in10.0 miCalmScattered Clouds
8:35 AM73.4 °F53.6 °F50 %30.31 in10.0 miSouth (170°)3.5 mphScattered Clouds
8:55 AM75.2 °F53.6 °F47 %30.31 in10.0 miCalmMostly Cloudy
9:15 AM77.0 °F53.6 °F44 %30.31 in10.0 miCalmScattered Clouds
9:35 AM78.8 °F51.8 °F39 %30.30 in10.0 miWNW (290°)3.5 mphScattered Clouds
9:55 AM86.0 °F51.8 °F31 %30.30 in10.0 miCalmScattered Clouds
10:15 AM82.4 °F51.8 °F35 %30.30 in10.0 miSouth (180°)5.8 mphClear
10:35 AM84.2 °F51.8 °F33 %30.29 in10.0 miSSW (200°)8.1 mphClear
10:55 AM82.4 °F50.0 °F32 %30.29 in10.0 miSW (230°)4.6 mphClear
11:15 AM84.2 °F50.0 °F30 %30.28 in10.0 miWSW (250°)3.5 mphClear
11:35 AM84.2 °F50.0 °F30 %30.27 in10.0 miSSE (160°)5.8 mphClear
11:55 AM87.8 °F50.0 °F27 %30.27 in10.0 miSSW (200°)8.1 mphClear
12:15 PM87.8 °F50.0 °F27 %30.26 in10.0 miSouth (190°)8.1 mphClear
12:35 PM86.0 °F50.0 °F29 %30.25 in10.0 miWNW (290°)8.1 mphClear
12:55 PM87.8 °F50.0 °F27 %30.25 in10.0 miWest (280°)5.8 mphClear
1:15 PM86.0 °F48.2 °F27 %30.24 in10.0 miSSE (160°)6.9 mphClear
1:35 PM89.6 °F48.2 °F24 %30.23 in10.0 miWSW (250°)9.2 mph18.4 mphClear
1:55 PM87.8 °F48.2 °F25 %30.22 in10.0 miNW (310°)4.6 mphClear
2:15 PM87.8 °F48.2 °F25 %30.21 in10.0 miSSW (200°)5.8 mphClear
2:35 PM89.6 °F48.2 °F24 %30.20 in10.0 miWest (280°)11.5 mph16.1 mphClear
2:55 PM89.6 °F48.2 °F24 %30.18 in10.0 miWNW (290°)4.6 mphClear
3:15 PM89.6 °F50.0 °F26 %30.17 in10.0 miNW (320°)9.2 mph17.3 mphClear
3:35 PM89.6 °F50.0 °F26 %30.17 in10.0 miWest (280°)13.8 mph20.7 mphClear
3:55 PM89.6 °F50.0 °F26 %30.16 in10.0 miWest (280°)12.7 mph20.7 mphThunderstormClear
4:15 PM87.8 °F50.0 °F27 %30.16 in10.0 miNW (310°)11.5 mphThunderstormClear
4:35 PM87.8 °F50.0 °F27 %30.16 in10.0 miWest (280°)11.5 mphThunderstormClear
4:55 PM86.0 °F50.0 °F29 %30.17 in10.0 miWest (280°)12.7 mph17.3 mphThunderstormClear
5:15 PM86.0 °F50.0 °F29 %30.16 in10.0 miWNW (300°)15.0 mph20.7 mphThunderstormClear
5:35 PM82.4 °F50.0 °F32 %30.16 in10.0 miNW (320°)16.1 mph20.7 mphThunderstormScattered Clouds
5:55 PM82.4 °F50.0 °F32 %30.17 in10.0 miWNW (300°)11.5 mph20.7 mphMostly Cloudy
6:15 PM82.4 °F50.0 °F32 %30.17 in10.0 miWNW (290°)9.2 mphScattered Clouds
6:55 PM82.4 °F50.0 °F32 %30.17 in10.0 miCalmClear
7:15 PM82.4 °F50.0 °F32 %30.19 in10.0 miCalmScattered Clouds
7:35 PM80.6 °F51.8 °F37 %30.20 in10.0 miCalmMostly Cloudy
7:55 PM80.6 °F51.8 °F37 %30.20 in10.0 miWSW (250°)4.6 mphThunderstormThunderstorm
8:15 PM78.8 °F53.6 °F42 %30.21 in10.0 miSW (230°)6.9 mphThunderstormThunderstorm
8:35 PM78.8 °F51.8 °F39 %30.23 in10.0 miCalmThunderstormMostly Cloudy
8:55 PM77.0 °F53.6 °F44 %30.24 in10.0 miWNW (290°)12.7 mphThunderstormScattered Clouds
9:15 PM73.4 °F53.6 °F50 %30.25 in10.0 miWest (270°)4.6 mphThunderstormMostly Cloudy
9:35 PM73.4 °F55.4 °F53 %30.25 in10.0 miNW (320°)5.8 mphScattered Clouds
9:55 PM73.4 °F55.4 °F53 %30.25 in10.0 miWNW (300°)4.6 mphScattered Clouds
10:15 PM71.6 °F55.4 °F57 %30.24 in10.0 miCalmLight Drizzle
10:35 PM73.4 °F55.4 °F53 %30.25 in10.0 miCalmMostly Cloudy
10:55 PM73.4 °F55.4 °F53 %30.25 in10.0 miEast (100°)3.5 mphThunderstormOvercast
11:15 PM73.4 °F55.4 °F53 %30.25 in10.0 miCalmOvercast
11:35 PM73.4 °F55.4 °F53 %30.25 in10.0 miSSE (150°)3.5 mphMostly Cloudy
11:55 PM73.4 °F53.6 °F50 %30.25 in10.0 miCalmOvercast
Hourly data recorded from KSEZ, located miles away from Rimrock, Arizona







STORIES FROM OUR PARTNERS